Terug naar catalogus

COSMOS 1579 COOLANT

LostLEO
NORAD 26518·DEBRIS·🇷🇺 Russia

Gelanceerd Jun 29, 1984 vanaf Baikonur Cosmodrome

Loading…

Volgende Passages (komende 24 uur)

TLE

VerouderdSource: Space-Track

Epoch: Dec 27, 2006, 21:06 UTC

1 26518U 84069K   06361.87958250 +.00000025 +00000-0 +91265-4 0  9993
2 26518 065.0477 089.0263 0058474 287.3212 071.4430 13.90096027367332

Volg COSMOS 1579 COOLANT in realtime met AllMySat

Download on the App Store